This demonstration page uses our WeatherBlox Daily Observations layout. Learn more.

Left ArrowRight Arrow

39.29038, -76.61219

Hourly Observations for May 25, 2022

Temp ( °F °C ) Dew Point ( °F °C ) Humidity (%) Winds ( mph kmh ) Pressure ( in mb ) Visibility ( mi km ) Precip ( " mm )
12:54 am 00:54 Mostly Cloudy 62 16.7 48 8.9 60 60 ENE 8 13 30.28 1026 10 16 0.00 0.00
1:54 am 01:54 Partly Cloudy 59 15 47 8.3 64 64 ENE 5 7 30.27 1025 10 16 0.00 0.00
2:54 am 02:54 Partly Cloudy 59 15 47 8.3 64 64 NE 5 7 30.27 1025 10 16 0.00 0.00
3:24 am 03:24 Mostly Cloudy 59 15 49 9.4 69 69 NE 5 7 30.27 1025 10 16 0.00 0.00
3:54 am 03:54 Mostly Cloudy 59 15 49 9.4 69 69 NNE 5 7 30.27 1025 10 16 0.00 0.00
4:27 am 04:27 Partly Cloudy 59 15 50 10 72 72 E 8 13 30.27 1025 10 16 0.00 0.00
4:54 am 04:54 Cloudy 59 15 51 10.6 75 75 NNE 6 9 30.27 1025 10 16 0.00 0.00
5:54 am 05:54 Cloudy 59 15 50 10 72 72 NNE 6 9 30.30 1026 10 16 0.00 0.00
6:38 am 06:38 Cloudy 59 15 50 10 72 72 NE 8 13 30.32 1027 10 16 0.00 0.00
6:54 am 06:54 Cloudy 59 15 51 10.6 75 75 NE 7 11 30.32 1027 10 16 0.00 0.00
7:54 am 07:54 Mostly Cloudy 60 15.6 52 11.1 75 75 ENE 10 17 30.32 1027 10 16 0.00 0.00
8:54 am 08:54 Cloudy 63 17.2 54 12.2 73 73 E 8 13 30.35 1028 10 16 0.00 0.00
9:19 am 09:19 Cloudy 63 17.2 54 12.2 73 73 ENE 9 15 30.35 1028 10 16 0.00 0.00
9:54 am 09:54 Cloudy 64 17.8 54 12.2 70 70 E 10 17 30.34 1027 10 16 0.00 0.00
10:54 am 10:54 Mostly Cloudy 66 18.9 54 12.2 65 65 E 9 15 30.34 1028 10 16 0.00 0.00
11:54 am 11:54 Cloudy 68 20 54 12.2 61 61 E 12 19 30.35 1028 10 16 0.00 0.00
12:54 pm 12:54 Mostly Cloudy 71 21.7 55 12.8 57 57 ENE 9 15 30.33 1027 10 16 0.00 0.00
1:54 pm 13:54 Mostly Cloudy 72 22.2 51 10.6 48 48 E 17 28 30.32 1027 10 16 0.00 0.00
2:54 pm 14:54 Mostly Cloudy 72 22.2 50 10 46 46 ESE 13 20 30.32 1027 10 16 0.00 0.00
3:54 pm 15:54 Mostly Cloudy 72 22.2 47 8.3 41 41 ESE 9 15 30.30 1026 10 16 0.00 0.00
4:54 pm 16:54 Mostly Cloudy 72 22.2 47 8.3 41 41 ESE 12 19 30.29 1026 10 16 0.00 0.00
5:54 pm 17:54 Mostly Cloudy 71 21.7 46 7.8 41 41 ESE 13 20 30.29 1026 10 16 0.00 0.00
6:54 pm 18:54 Mostly Cloudy 69 20.6 46 7.8 44 44 ESE 12 19 30.30 1026 10 16 0.00 0.00
7:54 pm 19:54 Mostly Cloudy 67 19.4 46 7.8 47 47 E 10 17 30.31 1027 10 16 0.00 0.00
8:54 pm 20:54 Mostly Cloudy 65 18.3 46 7.8 51 51 ESE 9 15 30.31 1026 10 16 0.00 0.00
9:54 pm 21:54 Mostly Cloudy 64 17.8 45 7.2 50 50 SE 5 7 30.32 1027 10 16 0.00 0.00
10:54 pm 22:54 Mostly Cloudy 63 17.2 45 7.2 52 52 E 8 13 30.32 1027 10 16 0.00 0.00
11:54 pm 23:54 Mostly Cloudy 62 16.7 44 6.7 52 52 E 9 15 30.31 1027 10 16 0.00 0.00

Powered by AerisWeather